TimeEDT,TemperatureF,Dew PointF,Humidity,Sea Level PressureIn,VisibilityMPH,Wind Direction,Wind SpeedMPH,Gust SpeedMPH,PrecipitationIn,Events,Conditions,WindDirDegrees,DateUTC
12:15 AM,41.0,41.0,100,30.20,0.2,SSE,4.6,-,N/A,,Overcast,160,2012-10-08 04:15:00
12:35 AM,41.0,41.0,100,30.20,0.5,Calm,Calm,-,N/A,,Overcast,0,2012-10-08 04:35:00
12:55 AM,41.0,41.0,100,30.20,0.2,Calm,Calm,-,N/A,,Overcast,0,2012-10-08 04:55:00
1:15 AM,41.0,39.2,93,30.21,0.5,Calm,Calm,-,N/A,,Overcast,0,2012-10-08 05:15:00
1:35 AM,41.0,39.2,93,30.21,0.5,Calm,Calm,-,N/A,,Mostly Cloudy,0,2012-10-08 05:35:00
1:55 AM,39.2,39.2,100,30.21,2.0,Calm,Calm,-,N/A,,Scattered Clouds,0,2012-10-08 05:55:00
2:15 AM,39.2,39.2,100,30.21,1.0,Calm,Calm,-,N/A,,Clear,0,2012-10-08 06:15:00
2:35 AM,37.4,37.4,100,30.21,0.5,SSE,5.8,-,N/A,,Overcast,150,2012-10-08 06:35:00
2:55 AM,37.4,37.4,100,30.21,0.8,Calm,Calm,-,N/A,,Mostly Cloudy,0,2012-10-08 06:55:00
3:15 AM,37.4,37.4,100,30.20,0.2,Calm,Calm,-,N/A,,Overcast,0,2012-10-08 07:15:00
3:35 AM,39.2,39.2,100,30.21,0.8,Calm,Calm,-,N/A,,Mostly Cloudy,0,2012-10-08 07:35:00
3:55 AM,39.2,39.2,100,30.20,0.8,Calm,Calm,-,N/A,,Unknown,0,2012-10-08 07:55:00
4:15 AM,37.4,37.4,100,30.20,6.0,Calm,Calm,-,N/A,,Clear,0,2012-10-08 08:15:00
4:35 AM,37.4,37.4,100,30.22,3.0,Calm,Calm,-,N/A,,Clear,0,2012-10-08 08:35:00
4:55 AM,35.6,35.6,100,30.22,1.5,Calm,Calm,-,N/A,,Clear,0,2012-10-08 08:55:00
5:15 AM,35.6,35.6,100,30.23,2.5,Calm,Calm,-,N/A,,Clear,0,2012-10-08 09:15:00
5:35 AM,39.2,39.2,100,30.22,6.0,Calm,Calm,-,N/A,,Clear,0,2012-10-08 09:35:00
5:55 AM,39.2,39.2,100,30.24,5.0,South,3.5,-,N/A,,Clear,190,2012-10-08 09:55:00
6:15 AM,39.2,39.2,100,30.23,9.0,Calm,Calm,-,N/A,,Clear,0,2012-10-08 10:15:00
7:45 AM,42.8,42.8,100,30.26,10.0,North,3.5,-,N/A,,Clear,350,2012-10-08 11:45:00
8:50 AM,44.6,42.8,93,30.28,10.0,NNE,5.8,-,N/A,,Clear,20,2012-10-08 12:50:00
10:50 AM,46.4,44.6,93,30.29,10.0,NNE,4.6,-,N/A,,Clear,30,2012-10-08 14:50:00
11:50 AM,50.0,42.8,76,30.31,10.0,NNE,3.5,-,N/A,,Mostly Cloudy,20,2012-10-08 15:50:00
12:45 PM,51.8,41.0,67,30.30,10.0,East,3.5,-,N/A,,Mostly Cloudy,80,2012-10-08 16:45:00
2:45 PM,51.8,41.0,67,30.28,10.0,North,8.1,-,N/A,,Mostly Cloudy,350,2012-10-08 18:45:00
4:45 PM,51.8,42.8,71,30.25,10.0,North,9.2,-,N/A,,Overcast,10,2012-10-08 20:45:00
5:45 PM,50.0,42.8,76,30.23,10.0,NNE,9.2,-,N/A,,Overcast,20,2012-10-08 21:45:00
6:45 PM,48.2,42.8,82,30.24,10.0,North,6.9,-,N/A,,Overcast,360,2012-10-08 22:45:00
7:15 PM,48.2,42.8,82,30.23,10.0,North,6.9,-,N/A,,Overcast,10,2012-10-08 23:15:00
7:35 PM,48.2,42.8,82,30.24,10.0,North,3.5,-,N/A,,Overcast,350,2012-10-08 23:35:00
7:55 PM,48.2,42.8,82,30.23,10.0,North,6.9,-,N/A,,Overcast,360,2012-10-08 23:55:00
8:15 PM,46.4,44.6,93,30.24,10.0,North,4.6,-,N/A,,Overcast,350,2012-10-09 00:15:00
8:35 PM,46.4,44.6,93,30.23,10.0,North,5.8,-,N/A,,Overcast,350,2012-10-09 00:35:00
8:55 PM,46.4,44.6,93,30.23,10.0,NNW,5.8,-,N/A,,Overcast,330,2012-10-09 00:55:00
9:15 PM,46.4,44.6,93,30.23,10.0,NNW,6.9,-,N/A,,Overcast,340,2012-10-09 01:15:00
9:35 PM,46.4,44.6,93,30.23,10.0,NNW,6.9,-,N/A,,Overcast,340,2012-10-09 01:35:00
9:55 PM,46.4,44.6,93,30.23,10.0,NNW,9.2,-,N/A,,Overcast,340,2012-10-09 01:55:00
10:15 PM,46.4,44.6,93,30.24,10.0,NNW,6.9,-,N/A,,Overcast,330,2012-10-09 02:15:00
10:35 PM,46.4,44.6,93,30.23,10.0,NNW,6.9,-,N/A,,Overcast,340,2012-10-09 02:35:00
10:55 PM,46.4,44.6,93,30.23,10.0,North,6.9,-,N/A,,Overcast,350,2012-10-09 02:55:00
11:15 PM,46.4,44.6,93,30.23,10.0,North,5.8,-,N/A,,Overcast,360,2012-10-09 03:15:00
11:55 PM,46.4,44.6,93,30.23,10.0,NNW,4.6,-,N/A,,Overcast,330,2012-10-09 03:55:00